EW3309 Weather Reports


Display with metric or nautical units.
time (UTC)temp
F
wind
direction
speed
MPH
gust
MPH
rain 1hr
in
rain 24hr
in
rain mn
in
humidity
%
barometer
mb
20260505094523 56 243 0.0 0.0 0.01 0.17 0.17 89 1012.5
20260505093027 56 217 0.0 0.0 0.07 0.17 0.17 88 1012.6
20260505091520 56 229 0.0 0.0 0.10 0.17 0.17 88 1012.8
20260505090017 57 217 0.0 0.0 0.13 0.16 0.16 87 1013.0
20260505084519 57 203 0.0 0.0 0.16 0.16 0.16 85 1012.9
20260505083014 57 200 0.0 0.0 0.09 0.09 0.09 84 1013.1
20260505081509 58 202 0.0 0.0 0.07 0.07 0.07 82 1013.3
20260505080018 59 134 0.0 0.0 0.03 0.03 0.03 80 1013.4
20260505074505 59 158 0.0 0.0 0.00 0.00 0.00 78 1013.3
20260505073003 59 210 0.0 0.0 0.00 0.00 0.00 77 1013.3
20260505071604 60 228 0.0 0.0 0.00 0.00 0.00 76 1013.5
20260505070059 60 232 0.0 0.0 0.00 0.00 0.00 75 1013.3
20260505064603 60 237 0.0 0.0 0.00 0.00 0.00 75 1013.4
20260505063057 60 255 0.0 0.0 0.00 0.00 0.00 74 1013.5
20260505061557 60 245 0.0 0.0 0.00 0.00 0.00 74 1013.6
20260505054603 60 217 0.0 0.0 0.00 0.00 0.00 73 1013.8
20260505053110 60 238 0.0 0.0 0.00 0.00 0.00 73 1014.0
20260505051555 60 226 0.0 0.0 0.00 0.00 0.00 73 1014.1
20260505041612 60 223 0.0 0.0 0.00 0.00 0.00 74 1014.4
20260505040053 60 295 0.0 0.0 0.00 0.00 0.00 74 1014.3
20260505034552 60 277 0.0 0.0 0.00 0.00 0.00 74 1014.2
20260505033051 60 264 0.0 0.0 0.00 0.00 0.00 74 1014.0
20260505031600 60 276 0.0 0.0 0.00 0.00 0.00 74 1013.8
20260505030051 60 274 0.0 0.0 0.00 0.00 0.00 73 1013.8
20260505024550 61 287 0.0 0.0 0.00 0.00 0.00 71 1013.4
20260505023051 62 266 0.0 0.0 0.00 0.00 0.00 70 1013.5
20260505021549 63 272 0.0 0.0 0.00 0.00 0.00 68 1013.4
20260505020048 63 311 0.0 0.0 0.00 0.00 0.00 67 1013.5
20260505014548 63 297 0.0 0.0 0.00 0.00 0.00 67 1013.4
20260505013046 65 285 0.0 0.0 0.00 0.00 0.00 62 1013.6
20260505011546 66 306 0.0 0.0 0.00 0.00 0.00 61 1013.5
20260505010047 66 312 0.0 0.0 0.00 0.00 0.00 59 1013.7
20260505004546 67 302 0.0 0.0 0.00 0.00 0.00 57 1013.8
20260505003043 67 271 0.0 0.0 0.00 0.00 0.00 54 1013.7
20260505001550 67 277 0.0 0.0 0.00 0.00 0.00 54 1013.7
20260505000052 67 255 0.0 0.0 0.00 0.00 0.00 53 1013.7
20260504234549 67 293 0.0 0.0 0.00 0.00 0.00 53 1013.8
20260504233040 68 271 0.0 0.0 0.00 0.00 0.00 54 1013.7
20260504231555 68 244 0.0 0.0 0.00 0.00 0.00 54 1013.7
20260504230039 68 273 0.0 0.0 0.00 0.00 0.00 54 1013.7
20260504224540 68 246 0.0 0.0 0.00 0.00 0.00 53 1013.8
20260504223035 68 282 0.0 0.0 0.00 0.00 0.00 53 1013.8
20260504221535 68 297 0.0 0.0 0.00 0.00 0.00 54 1013.9
20260504220035 69 294 0.0 0.0 0.00 0.00 0.00 51 1014.1
20260504214531 69 260 0.0 0.0 0.00 0.00 0.00 51 1014.3
20260504213030 69 304 0.0 0.0 0.00 0.00 0.00 50 1014.2
20260504211529 69 309 0.0 0.0 0.00 0.00 0.00 51 1014.3
20260504210030 69 309 0.0 0.0 0.00 0.00 0.00 52 1014.4
20260504204526 69 252 0.0 0.0 0.00 0.00 0.00 53 1014.5
20260504203032 69 305 0.0 0.0 0.00 0.00 0.00 52 1014.3
20260504201523 68 298 0.0 0.0 0.00 0.00 0.00 54 1014.3
20260504200024 68 290 0.0 0.0 0.00 0.00 0.00 53 1014.4
20260504194531 67 312 0.0 0.0 0.00 0.00 0.00 54 1014.5
20260504193019 67 279 0.0 0.0 0.00 0.00 0.00 55 1014.7
20260504191517 67 295 0.0 0.0 0.00 0.00 0.00 56 1014.8
20260504190014 67 250 0.0 0.0 0.00 0.00 0.00 57 1014.9
20260504184513 66 279 0.0 0.0 0.00 0.00 0.00 56 1015.1
20260504183012 66 233 0.0 0.0 0.00 0.00 0.00 58 1015.1
20260504181510 65 306 0.0 0.0 0.00 0.00 0.00 60 1015.2
20260504180013 64 292 0.0 0.0 0.00 0.00 0.00 61 1015.3
20260504174503 64 290 0.0 0.0 0.00 0.00 0.00 64 1015.1
20260504173000 64 263 0.0 0.0 0.00 0.00 0.00 63 1015.1
20260504171558 63 252 0.0 0.0 0.00 0.00 0.00 68 1014.9